EW0199 Weather Reports


Display with metric or nautical units.
time (UTC)temp
F
wind
direction
speed
MPH
gust
MPH
rain 1hr
in
rain 24hr
in
rain mn
in
humidity
%
barometer
mb
20260509204859 59 16 7.0 14.0 0.00 0.00 0.00 31 1003.4
20260509204328 58 326 5.0 16.0 0.00 0.00 0.00 30 1003.2
20260509203850 58 333 7.0 16.0 0.00 0.00 0.00 30 1003.2
20260509203359 58 310 9.0 14.0 0.00 0.00 0.00 30 1003.1
20260509202917 59 250 6.0 17.0 0.00 0.00 0.00 31 1003.0
20260509202324 58 321 8.0 16.0 0.00 0.00 0.00 33 1002.8
20260509201845 57 320 4.0 16.0 0.00 0.00 0.00 31 1002.7
20260509201353 59 341 7.0 16.0 0.00 0.00 0.00 31 1002.7
20260509200903 59 314 9.0 16.0 0.00 0.00 0.00 31 1002.6
20260509200349 58 295 7.0 19.0 0.00 0.00 0.00 30 1002.6
20260509195917 58 261 9.0 20.0 0.00 0.00 0.00 30 1002.6
20260509195425 57 326 8.0 20.0 0.00 0.00 0.00 32 1002.4
20260509194923 57 295 9.0 17.0 0.00 0.00 0.00 29 1002.3
20260509194324 58 61 6.0 15.0 0.00 0.00 0.00 29 1002.2
20260509193833 59 317 8.0 17.0 0.00 0.00 0.00 30 1002.2
20260509193357 59 311 9.0 20.0 0.00 0.00 0.00 28 1002.1
20260509192903 59 293 7.0 18.0 0.00 0.00 0.00 30 1002.1
20260509192412 59 257 6.0 18.0 0.00 0.00 0.00 31 1002.0
20260509191832 58 328 9.0 18.0 0.00 0.00 0.00 32 1001.9
20260509191355 58 338 7.0 15.0 0.00 0.00 0.00 31 1001.8
20260509190903 58 310 7.0 21.0 0.00 0.00 0.00 31 1001.8
20260509190426 59 310 12.0 21.0 0.00 0.00 0.00 29 1001.9
20260509185833 58 341 7.0 16.0 0.00 0.00 0.00 32 1001.8
20260509185355 58 305 3.0 15.0 0.00 0.00 0.00 32 1001.6
20260509184857 58 1 8.0 21.0 0.00 0.00 0.00 33 1001.7
20260509184344 58 274 7.0 21.0 0.00 0.00 0.00 32 1001.5
20260509183902 57 305 12.0 21.0 0.00 0.00 0.00 34 1001.5
20260509183324 57 288 10.0 19.0 0.00 0.00 0.00 33 1001.5
20260509182830 58 302 7.0 16.0 0.00 0.00 0.00 35 1001.4
20260509182354 58 311 8.0 16.0 0.00 0.00 0.00 32 1001.4
20260509181915 59 340 6.0 15.0 0.00 0.00 0.00 33 1001.3
20260509181412 58 281 8.0 18.0 0.00 0.00 0.00 32 1001.3
20260509180833 58 305 10.0 18.0 0.00 0.00 0.00 32 1001.2
20260509180338 59 296 10.0 16.0 0.00 0.00 0.00 33 1001.2
20260509175845 59 286 4.0 19.0 0.00 0.00 0.00 34 1001.1
20260509175407 59 254 7.0 19.0 0.00 0.00 0.00 34 1001.1
20260509174828 58 335 7.0 13.0 0.00 0.00 0.00 34 1001.0
20260509174351 58 249 4.0 17.0 0.00 0.00 0.00 35 1000.9
20260509173911 57 290 8.0 17.0 0.00 0.00 0.00 34 1001.1
20260509173418 57 281 9.0 23.0 0.00 0.00 0.00 34 1001.0
20260509172840 58 337 11.0 23.0 0.00 0.00 0.00 35 1000.9
20260509172410 57 312 8.0 15.0 0.00 0.00 0.00 35 1000.8
20260509171823 56 283 8.0 18.0 0.00 0.00 0.00 35 1000.8
20260509171333 56 333 8.0 18.0 0.00 0.00 0.00 34 1000.7
20260509170854 57 279 8.0 15.0 0.00 0.00 0.00 37 1000.6
20260509170404 57 323 6.0 11.0 0.00 0.00 0.00 34 1000.5
20260509165826 56 359 6.0 13.0 0.00 0.00 0.00 36 1000.4
20260509165350 56 289 5.0 13.0 0.00 0.00 0.00 37 1000.2
20260509164913 56 317 6.0 11.0 0.00 0.00 0.00 37 1000.1
20260509164337 56 30 4.0 12.0 0.00 0.00 0.00 40 1000.1
20260509163838 56 346 6.0 12.0 0.00 0.00 0.00 41 1000.1
20260509163350 56 282 5.0 13.0 0.00 0.00 0.00 43 1000.0
20260509162912 56 305 7.0 12.0 0.00 0.00 0.00 44 1000.1
20260509162330 56 306 5.0 11.0 0.00 0.00 0.00 42 1000.0
20260509161858 55 334 4.0 12.0 0.00 0.00 0.00 46 1000.0
20260509161410 55 321 5.0 12.0 0.00 0.00 0.00 47 1000.1
20260509160917 55 351 7.0 11.0 0.00 0.00 0.00 47 1000.0
20260509160420 56 313 3.0 10.0 0.00 0.00 0.00 47 999.9
20260509155823 55 326 4.0 10.0 0.00 0.00 0.00 48 999.9
20260509155349 55 326 4.0 13.0 0.00 0.00 0.00 48 999.8
20260509154914 56 265 6.0 15.0 0.00 0.00 0.00 48 999.8
20260509154333 56 268 7.0 12.0 0.00 0.00 0.00 47 999.7
20260509153856 56 77 5.0 12.0 0.00 0.00 0.00 48 999.6
20260509153338 56 281 6.0 12.0 0.00 0.00 0.00 49 999.6
20260509152850 55 283 7.0 15.0 0.00 0.00 0.00 49 999.6
20260509152412 55 261 5.0 15.0 0.00 0.00 0.00 48 999.6
20260509151916 55 313 6.0 13.0 0.00 0.00 0.00 47 999.5
20260509151329 54 316 6.0 13.0 0.00 0.00 0.00 54 999.4
20260509150851 54 264 5.0 9.0 0.00 0.00 0.00 55 999.4
20260509150402 53 231 4.0 14.0 0.00 0.00 0.00 56 999.4
20260509145848 53 299 9.0 14.0 0.00 0.00 0.00 55 999.4
20260509144842 53 293 3.0 11.0 0.00 0.00 0.00 59 999.4
20260509144405 52 321 5.0 13.0 0.00 0.00 0.00 60 999.4
20260509143824 52 292 8.0 12.0 0.00 0.00 0.00 60 999.4
20260509143350 52 238 3.0 9.0 0.00 0.00 0.00 61 999.4
20260509142345 51 230 5.0 12.0 0.00 0.00 0.00 61 999.5
20260509141347 51 265 3.0 8.0 0.00 0.00 0.00 61 999.6
20260509140849 50 304 5.0 8.0 0.00 0.00 0.00 60 999.6
20260509135844 50 286 3.0 9.0 0.00 0.00 0.00 58 999.4
20260509135358 51 283 2.0 9.0 0.00 0.00 0.00 57 999.4
20260509134906 51 278 3.0 9.0 0.00 0.00 0.00 56 999.4
20260509134326 51 281 4.0 8.0 0.00 0.00 0.00 54 999.3
20260509133850 51 299 4.0 8.0 0.00 0.00 0.00 54 999.4
20260509133358 51 316 3.0 13.0 0.00 0.00 0.00 54 999.3
20260509132907 51 312 7.0 13.0 0.00 0.00 0.00 53 999.3
20260509132325 51 321 6.0 11.0 0.00 0.00 0.00 51 999.2
20260509131845 52 312 4.0 11.0 0.00 0.00 0.00 52 999.3
20260509131413 52 318 6.0 13.0 0.00 0.00 0.00 51 999.1
20260509130833 52 354 6.0 13.0 0.00 0.00 0.00 50 999.2
20260509130400 52 288 5.0 13.0 0.00 0.00 0.00 49 999.2
20260509125907 52 335 5.0 13.0 0.00 0.00 0.00 49 998.9
20260509125434 52 293 5.0 11.0 0.00 0.00 0.00 49 998.8
20260509124835 52 318 2.0 11.0 0.00 0.00 0.00 49 998.6
20260509124354 52 20 4.0 12.0 0.00 0.00 0.00 48 998.6
20260509123919 52 299 5.0 12.0 0.00 0.00 0.00 48 998.5
20260509123322 51 317 5.0 10.0 0.00 0.00 0.00 48 998.5
20260509122843 51 338 3.0 8.0 0.00 0.00 0.00 48 998.4
20260509122411 51 320 3.0 9.0 0.00 0.00 0.00 48 998.3
20260509121828 51 295 4.0 10.0 0.00 0.00 0.00 49 998.3
20260509121350 51 335 6.0 10.0 0.00 0.00 0.00 47 998.2
20260509120914 51 309 3.0 7.0 0.00 0.00 0.00 49 998.2
20260509120417 51 312 2.0 7.0 0.00 0.00 0.00 50 998.2
20260509115840 51 321 2.0 7.0 0.00 0.00 0.00 51 998.1
20260509115408 51 294 2.0 5.0 0.00 0.00 0.00 52 998.1
20260509114935 51 312 2.0 5.0 0.00 0.00 0.00 52 998.1
20260509114332 51 321 3.0 5.0 0.00 0.00 0.00 52 998.1
20260509113855 51 313 1.0 7.0 0.00 0.00 0.00 53 997.9
20260509113322 50 291 1.0 7.0 0.00 0.00 0.00 52 997.8
20260509112845 50 319 1.0 6.0 0.00 0.00 0.00 53 997.9
20260509111845 49 302 1.0 5.0 0.00 0.00 0.00 54 997.7
20260509111411 49 299 1.0 5.0 0.00 0.00 0.00 54 997.6
20260509110832 49 294 1.0 3.0 0.00 0.00 0.00 54 997.4
20260509110355 49 302 0.0 3.0 0.00 0.00 0.00 54 997.2
20260509105918 50 296 0.0 2.0 0.00 0.00 0.00 53 997.1
20260509105340 50 289 0.0 5.0 0.00 0.00 0.00 52 996.9
20260509104913 50 298 1.0 6.0 0.00 0.00 0.00 51 996.8
20260509104415 50 302 2.0 6.0 0.00 0.00 0.00 52 996.8
20260509103917 50 314 1.0 5.0 0.00 0.00 0.00 52 996.7
20260509103333 51 313 1.0 5.0 0.00 0.00 0.00 52 996.7
20260509102859 51 293 1.0 5.0 0.00 0.00 0.00 52 996.7
20260509102340 51 314 2.0 9.0 0.00 0.00 0.00 52 996.8
20260509101343 50 306 2.0 7.0 0.00 0.00 0.00 53 996.5
20260509100906 50 327 3.0 7.0 0.00 0.00 0.00 55 996.7
20260509100326 49 321 2.0 7.0 0.00 0.00 0.00 58 996.7
20260509095850 48 321 2.0 6.0 0.00 0.00 0.00 61 996.9
20260509095413 47 309 2.0 6.0 0.00 0.00 0.00 63 997.0
20260509094828 46 285 0.0 2.0 0.00 0.00 0.00 66 997.0
20260509094351 45 290 0.0 3.0 0.00 0.00 0.00 70 996.9
20260509093349 45 286 0.0 1.0 0.00 0.00 0.00 69 996.8
20260509092913 44 286 0.0 1.0 0.00 0.00 0.00 70 997.0
20260509092415 43 306 0.0 1.0 0.00 0.00 0.00 74 997.1
20260509091833 41 306 0.0 0.0 0.00 0.00 0.00 79 997.0
20260509091356 40 306 0.0 0.0 0.00 0.00 0.00 83 996.9
20260509090920 40 306 0.0 0.0 0.00 0.00 0.00 84 996.8
20260509090336 40 306 0.0 0.0 0.00 0.00 0.00 84 996.9
20260509085858 40 306 0.0 0.0 0.00 0.00 0.00 82 996.8
20260509085417 40 306 0.0 0.0 0.00 0.00 0.00 83 996.9
20260509084920 40 306 0.0 0.0 0.00 0.00 0.00 83 996.8
20260509084337 40 306 0.0 1.0 0.00 0.00 0.00 84 997.0
20260509083846 40 306 0.0 1.0 0.00 0.00 0.00 85 997.1
20260509083415 40 231 0.0 1.0 0.00 0.00 0.00 82 997.0
20260509082838 40 167 0.0 0.0 0.00 0.00 0.00 83 996.9
20260509082402 40 167 0.0 0.0 0.00 0.00 0.00 84 996.9
20260509081823 40 167 0.0 1.0 0.00 0.00 0.00 84 996.9
20260509081350 40 167 0.0 0.0 0.00 0.00 0.00 84 996.9
20260509080913 40 167 0.0 0.0 0.00 0.00 0.00 82 996.9
20260509080402 40 167 0.0 0.0 0.00 0.00 0.00 82 996.9
20260509075824 40 167 0.0 0.0 0.00 0.00 0.00 84 996.9
20260509075347 40 167 0.0 0.0 0.00 0.00 0.00 85 996.8
20260509074921 40 167 0.0 0.0 0.00 0.00 0.00 85 996.9
20260509074337 40 167 0.0 0.0 0.00 0.00 0.00 83 996.9
20260509073843 40 167 0.0 0.0 0.00 0.00 0.00 81 997.0
20260509072840 39 167 0.0 0.0 0.00 0.00 0.00 82 997.1
20260509072403 39 167 0.0 0.0 0.00 0.00 0.00 83 997.1
20260509071826 39 167 0.0 0.0 0.00 0.00 0.00 83 997.2
20260509071349 39 167 0.0 0.0 0.00 0.00 0.00 82 997.2
20260509070918 39 167 0.0 0.0 0.00 0.00 0.00 81 997.2
20260509070334 40 167 0.0 0.0 0.00 0.00 0.00 80 997.3
20260509065829 40 167 0.0 0.0 0.00 0.00 0.00 80 997.4
20260509065335 40 167 0.0 0.0 0.00 0.00 0.00 79 997.4
20260509064901 41 167 0.0 0.0 0.00 0.00 0.00 79 997.4
20260509064329 41 167 0.0 0.0 0.00 0.00 0.00 79 997.5
20260509063834 41 167 0.0 0.0 0.00 0.00 0.00 78 997.5
20260509063339 41 167 0.0 0.0 0.00 0.00 0.00 78 997.7
20260509062825 41 167 0.0 0.0 0.00 0.00 0.00 77 997.6
20260509062331 41 167 0.0 0.0 0.00 0.00 0.00 77 997.8
20260509061858 42 167 0.0 0.0 0.00 0.00 0.00 76 997.9
20260509061323 42 167 0.0 0.0 0.00 0.00 0.00 76 997.9
20260509060829 42 167 0.0 0.0 0.00 0.00 0.00 76 998.0
20260509060336 43 167 0.0 0.0 0.00 0.00 0.00 72 997.9
20260509055823 43 167 0.0 0.0 0.00 0.00 0.00 70 998.0
20260509055328 44 167 0.0 0.0 0.00 0.00 0.00 68 998.0
20260509054839 44 167 0.0 0.0 0.00 0.00 0.00 69 998.0
20260509054345 44 167 0.0 0.0 0.00 0.00 0.00 68 998.1
20260509053830 45 167 0.0 0.0 0.00 0.00 0.00 68 998.2
20260509053356 45 167 0.0 0.0 0.00 0.00 0.00 68 998.3
20260509052822 45 167 0.0 0.0 0.00 0.00 0.00 68 998.4
20260509052327 45 167 0.0 0.0 0.00 0.00 0.00 68 998.5
20260509051853 45 167 0.0 0.0 0.00 0.00 0.00 68 998.6
20260509051338 45 167 0.0 0.0 0.00 0.00 0.00 69 998.7
20260509050824 45 167 0.0 0.0 0.00 0.00 0.00 68 998.8
20260509050351 45 167 0.0 0.0 0.00 0.00 0.00 68 998.9
20260509045913 45 167 0.0 0.0 0.00 0.00 0.00 67 999.0
20260509045332 45 167 0.0 0.0 0.00 0.00 0.00 65 998.9
20260509044854 45 167 0.0 0.0 0.00 0.00 0.00 68 999.0
20260509043844 46 167 0.0 0.0 0.00 0.00 0.00 69 999.1
20260509042842 46 167 0.0 0.0 0.00 0.00 0.00 63 999.3
20260509042406 46 167 0.0 0.0 0.00 0.00 0.00 62 999.3
20260509041823 46 167 0.0 0.0 0.00 0.00 0.00 62 999.3
20260509041344 46 167 0.0 0.0 0.00 0.00 0.00 64 999.3
20260509040846 46 167 0.0 0.0 0.00 0.00 0.00 62 999.4
20260509040341 46 167 0.0 0.0 0.00 0.00 0.00 63 999.4
20260509035433 46 167 0.0 0.0 0.00 0.00 0.00 65 999.5
20260509034832 46 167 0.0 0.0 0.00 0.00 0.00 63 999.6
20260509034355 47 167 0.0 0.0 0.00 0.00 0.00 63 999.6
20260509033908 47 167 0.0 0.0 0.00 0.00 0.00 65 999.7
20260509033325 47 167 0.0 0.0 0.00 0.00 0.00 62 999.7
20260509032847 47 167 0.0 0.0 0.00 0.00 0.00 64 999.8
20260509031843 48 167 0.0 0.0 0.00 0.00 0.00 63 999.9
20260509031412 48 167 0.0 0.0 0.00 0.00 0.00 59 1000.0
20260509030936 48 167 0.0 0.0 0.00 0.00 0.00 55 1000.0
20260509030338 49 167 0.0 0.0 0.00 0.00 0.00 56 1000.1
20260509025906 49 167 0.0 0.0 0.00 0.00 0.00 56 1000.1
20260509025326 50 167 0.0 0.0 0.00 0.00 0.00 63 1000.1
20260509024853 50 167 0.0 0.0 0.00 0.00 0.00 58 1000.1
20260509024403 50 167 0.0 0.0 0.00 0.00 0.00 52 1000.2
20260509023911 51 167 0.0 0.0 0.00 0.00 0.00 52 1000.2
20260509023327 52 167 0.0 0.0 0.00 0.00 0.00 50 1000.2
20260509022845 53 167 0.0 0.0 0.00 0.00 0.00 49 1000.2
20260509022411 54 167 0.0 0.0 0.00 0.00 0.00 49 1000.2
20260509021839 55 167 0.0 0.0 0.00 0.00 0.00 42 1000.3
20260509021347 56 167 0.0 0.0 0.00 0.00 0.00 40 1000.3
20260509020914 56 167 0.0 0.0 0.00 0.00 0.00 40 1000.2
20260509020336 57 167 0.0 1.0 0.00 0.00 0.00 38 1000.2
20260509015904 58 167 0.0 1.0 0.00 0.00 0.00 38 1000.2
20260509015409 58 167 0.0 1.0 0.00 0.00 0.00 38 1000.2
20260509014827 58 208 0.0 1.0 0.00 0.00 0.00 37 1000.2
20260509014354 59 213 0.0 3.0 0.00 0.00 0.00 37 1000.2
20260509013915 59 214 0.0 3.0 0.00 0.00 0.00 36 1000.2
20260509013337 60 220 0.0 1.0 0.00 0.00 0.00 36 1000.2
20260509012904 60 231 0.0 2.0 0.00 0.00 0.00 35 1000.3
20260509012427 60 286 0.0 2.0 0.00 0.00 0.00 34 1000.3
20260509011828 61 199 0.0 5.0 0.00 0.00 0.00 34 1000.4
20260509011345 61 274 1.0 7.0 0.00 0.00 0.00 33 1000.4
20260509010908 61 184 2.0 7.0 0.00 0.00 0.00 33 1000.4
20260509010432 61 218 1.0 7.0 0.00 0.00 0.00 33 1000.4
20260509005838 61 281 3.0 7.0 0.00 0.00 0.00 33 1000.3
20260509005406 62 226 2.0 9.0 0.00 0.00 0.00 33 1000.3
20260509004825 62 223 5.0 9.0 0.00 0.00 0.00 33 1000.4
20260509004358 62 288 0.0 5.0 0.00 0.00 0.00 34 1000.4
20260509003336 62 256 2.0 6.0 0.00 0.00 0.00 34 1000.5
20260509002854 61 331 1.0 5.0 0.00 0.00 0.00 34 1000.5
20260509002417 62 290 1.0 7.0 0.00 0.00 0.00 34 1000.7
20260509001838 62 235 1.0 8.0 0.00 0.00 0.00 33 1000.6
20260509001345 62 287 2.0 12.0 0.00 0.00 0.00 33 1000.7
20260509000854 62 285 3.0 12.0 0.00 0.00 0.00 33 1000.9
20260509000403 61 229 3.0 16.0 0.00 0.00 0.00 34 1000.8
20260508235908 62 298 6.0 16.0 0.00 0.00 0.00 33 1000.7
20260508235415 61 35 1.0 4.0 0.00 0.00 0.00 32 1000.9
20260508234915 62 247 0.0 1.0 0.00 0.00 0.00 32 1000.9
20260508234337 62 281 0.0 1.0 0.00 0.00 0.00 33 1000.7
20260508233845 62 333 0.0 1.0 0.00 0.00 0.00 32 1000.8
20260508233408 62 248 0.0 1.0 0.00 0.00 0.00 31 1000.7
20260508232918 62 248 0.0 3.0 0.00 0.00 0.00 31 1000.8
20260508232334 63 208 0.0 2.0 0.00 0.00 0.00 30 1000.8
20260508231834 63 274 0.0 4.0 0.00 0.00 0.00 30 1000.9
20260508231344 63 285 1.0 5.0 0.00 0.00 0.00 31 1000.9
20260508230845 63 292 0.0 5.0 0.00 0.00 0.00 31 1001.0
20260508230409 63 289 2.0 5.0 0.00 0.00 0.00 29 1001.0
20260508225915 63 288 0.0 6.0 0.00 0.00 0.00 30 1001.0
20260508225435 63 302 2.0 6.0 0.00 0.00 0.00 30 1001.0
20260508224914 62 283 1.0 6.0 0.00 0.00 0.00 31 1001.1
20260508224335 62 299 2.0 6.0 0.00 0.00 0.00 30 1001.1
20260508223853 62 281 0.0 3.0 0.00 0.00 0.00 31 1001.2
20260508223413 62 281 1.0 8.0 0.00 0.00 0.00 31 1001.3
20260508222833 62 281 5.0 8.0 0.00 0.00 0.00 30 1001.4
20260508222344 62 268 1.0 4.0 0.00 0.00 0.00 30 1001.4
20260508221909 62 299 2.0 4.0 0.00 0.00 0.00 30 1001.4
20260508221329 62 293 1.0 8.0 0.00 0.00 0.00 30 1001.4
20260508220832 62 297 3.0 10.0 0.00 0.00 0.00 30 1001.6
20260508220355 62 278 5.0 10.0 0.00 0.00 0.00 29 1001.6
20260508215905 62 290 4.0 8.0 0.00 0.00 0.00 29 1001.6
20260508215326 62 300 3.0 11.0 0.00 0.00 0.00 30 1001.6
20260508214836 62 125 3.0 13.0 0.00 0.00 0.00 31 1001.7
20260508214344 62 341 5.0 13.0 0.00 0.00 0.00 30 1001.7
20260508213909 62 299 1.0 9.0 0.00 0.00 0.00 31 1001.7
20260508213427 62 350 3.0 9.0 0.00 0.00 0.00 29 1001.6
20260508212832 63 305 3.0 10.0 0.00 0.00 0.00 29 1001.7
20260508212339 63 300 4.0 8.0 0.00 0.00 0.00 30 1001.8
20260508211345 63 308 6.0 16.0 0.00 0.00 0.00 28 1001.8
20260508210337 63 316 4.0 13.0 0.00 0.00 0.00 29 1001.8
20260508205403 63 286 8.0 16.0 0.00 0.00 0.00 27 1001.9